Find Sich-2

NORAD ID: 37794 Int'l Des: 2011-044 Owner: DKAU Country: UA operational
LEOCIRCULARRETROGRADESSO

リアルタイム位置

3D地球を読み込み中...

Sich-2について

説明を読み込み中...

次回通過

Passes for default location (London). Set your location on the main map for personalized predictions.

高度履歴

Loading altitude history...

軌道要素

1 37794U 11044G 26119.23931961 .00000764 00000-0 14904-3 0 9991
2 37794 97.8356 102.0446 0011302 332.3780 38.7870 14.65583358784291
Epoch: Apr 29, 2026 • Age: 6 hours

現在のステータス

高度 684.0 km
速度 7.52 km/s
衛星直下点 -42.92°S, 71.38°E
打ち上げ日 Aug 17, 2011
運用期間 14.6 years
タイプ other

技術仕様

分類 Payload
質量 175.00 kg
乾燥質量 175.00 kg
総質量 175.00 kg
長さ 1.00 m
直径 1.00 m
スパン 1.00 m
形状 Box + 4 Pan
製造者 YUZHUA
バスタイプ MS-2-8
フェーズステータス In Orbit
所有者/国 DKAU/UA

Most Searched